Location: Burtsch�tz
(51.0528°N, 12.1764°E)
Time: 14:46:26
(UTC+00:00)

Cosmos 2263 Rocket - Pass Details

Date: 29 October 2020
Orbit: 822 x 850 km, 71.0° (Epoch: 28 November)

Event Time Altitude Azimuth Distance (km) Brightness Sun altitude
Rises 16:52:45 0° 331° (NNW) 3,419 5.6 -10.3°
Reaches altitude 10° 16:55:40 10° 345° (NNW) 2,484 4.7 -10.8°
Maximum altitude 17:00:20 25° 39° (NE) 1,657 3.3 -11.5°
Enters shadow 17:03:28 16° 82° (E) 2,076 3.6 -12.0°
